Back to catalog

STARLINK-32366

AliveCommunicationsVLEO
NORAD 61551·PAYLOAD·🇺🇸 United States

Launched Oct 15, 2024 from Vandenberg Space Force Base

Loading…

Next Passes (next 24 hours)

TLE

FreshSource: CelesTrak SupGP

Epoch: Sep 15, 2026, 03:08 UTC

1 61551C 24184V   26258.13104167 -.00063845  00000+0 -18865-2 0  2588
2 61551  53.1574 210.6667 0001338  88.0728  85.7663 15.34419446    18

Track STARLINK-32366 in real time with AllMySat

Download on the App Store